Time,TemperatureF,DewpointF,PressureIn,WindDirection,WindDirectionDegrees,WindSpeedMPH,WindSpeedGustMPH,Humidity,HourlyPrecipIn,Conditions,Clouds,dailyrainin,SoftwareType,DateUTC
2013-07-23 00:00:00,75.2,71.7,29.91,SW,215,1.3,5.2,89,0.00,,FEW038,0.00,VWS V14.01,2013-07-23 04:00:00,
2013-07-23 00:14:00,74.9,71.4,29.91,West,261,7.8,7.8,89,0.00,,FEW038,0.00,VWS V14.01,2013-07-23 04:14:00,
2013-07-23 00:29:00,74.5,71.1,29.91,SW,232,9.1,10.4,89,0.00,,FEW038,0.00,VWS V14.01,2013-07-23 04:29:00,
2013-07-23 00:43:00,74.2,70.8,29.90,SW,225,3.9,6.5,89,0.00,,FEW038,0.00,VWS V14.01,2013-07-23 04:43:00,
2013-07-23 00:59:00,73.9,70.5,29.89,SW,232,7.8,9.1,89,0.00,,FEW038,0.00,VWS V14.01,2013-07-23 04:59:00,
2013-07-23 01:13:00,73.7,70.6,29.88,West,271,5.2,7.8,90,0.00,,CLR,0.00,VWS V14.01,2013-07-23 05:13:00,
2013-07-23 01:28:00,73.5,70.4,29.87,WSW,254,0.0,5.2,90,0.00,,CLR,0.00,VWS V14.01,2013-07-23 05:28:00,
2013-07-23 01:43:00,73.3,70.5,29.88,WSW,244,0.0,2.6,91,0.00,,CLR,0.00,VWS V14.01,2013-07-23 05:43:00,
2013-07-23 01:58:00,73.0,70.5,29.88,WSW,244,0.0,1.3,92,0.00,,CLR,0.00,VWS V14.01,2013-07-23 05:58:00,
2013-07-23 02:14:00,73.1,70.6,29.87,WSW,244,0.0,3.9,92,0.00,,SCT009,0.00,VWS V14.01,2013-07-23 06:14:00,
2013-07-23 02:28:00,73.0,70.5,29.87,WSW,244,1.3,3.9,92,0.00,,SCT009,0.00,VWS V14.01,2013-07-23 06:28:00,
2013-07-23 02:43:00,73.0,70.5,29.86,SW,226,0.0,3.9,92,0.00,,SCT009,0.00,VWS V14.01,2013-07-23 06:43:00,
2013-07-23 02:58:00,72.7,70.2,29.87,SW,226,0.0,1.3,92,0.00,,SCT009,0.00,VWS V14.01,2013-07-23 06:58:00,
2013-07-23 03:13:00,72.5,70.4,29.87,West,265,0.0,5.2,93,0.00,,CLR,0.00,VWS V14.01,2013-07-23 07:13:00,
2013-07-23 03:28:00,72.3,70.2,29.87,West,270,0.0,1.3,93,0.00,,CLR,0.00,VWS V14.01,2013-07-23 07:28:00,
2013-07-23 03:43:00,72.1,70.0,29.86,West,265,0.0,0.0,93,0.00,,FEW005,0.00,VWS V14.01,2013-07-23 07:43:00,
2013-07-23 03:58:00,71.5,69.4,29.87,West,265,0.0,2.6,93,0.00,,FEW005,0.00,VWS V14.01,2013-07-23 07:58:00,
2013-07-23 04:13:00,71.0,69.2,29.87,West,265,0.0,0.0,94,0.00,,BKN005,0.00,VWS V14.01,2013-07-23 08:13:00,
2013-07-23 04:28:00,71.1,69.3,29.87,WSW,242,5.2,5.2,94,0.00,,BKN005,0.00,VWS V14.01,2013-07-23 08:28:00,
2013-07-23 04:43:00,71.2,69.4,29.87,West,264,1.3,7.8,94,0.00,,SCT005,0.00,VWS V14.01,2013-07-23 08:43:00,
2013-07-23 04:58:00,71.0,69.2,29.88,South,174,0.0,2.6,94,0.00,,SCT005,0.00,VWS V14.01,2013-07-23 08:58:00,
2013-07-23 05:13:00,71.0,69.2,29.88,SW,232,0.0,0.0,94,0.00,,FEW004,0.00,VWS V14.01,2013-07-23 09:13:00,
2013-07-23 05:28:00,70.8,69.0,29.88,ESE,122,0.0,1.3,94,0.00,,FEW004,0.00,VWS V14.01,2013-07-23 09:28:00,
2013-07-23 05:43:00,70.6,68.8,29.88,SSE,165,2.6,5.2,94,0.00,,FEW004,0.00,VWS V14.01,2013-07-23 09:43:00,
2013-07-23 05:58:00,70.9,69.1,29.89,NNW,342,2.6,2.6,94,0.00,,FEW004,0.00,VWS V14.01,2013-07-23 09:58:00,
2013-07-23 06:13:00,70.7,68.9,29.89,WSW,247,1.3,3.9,94,0.00,,FEW006,0.00,VWS V14.01,2013-07-23 10:13:00,
2013-07-23 06:28:00,70.7,68.9,29.89,South,175,0.0,0.0,94,0.00,,FEW006,0.00,VWS V14.01,2013-07-23 10:28:00,
2013-07-23 06:43:00,70.4,68.6,29.90,South,177,2.6,3.9,94,0.00,,FEW006,0.00,VWS V14.01,2013-07-23 10:43:00,
2013-07-23 06:59:00,70.7,68.3,29.89,WNW,302,1.3,3.9,92,0.00,,FEW006,0.00,VWS V14.01,2013-07-23 10:59:00,
2013-07-23 07:13:00,71.0,68.2,29.90,West,261,0.0,1.3,91,0.00,,CLR,0.00,VWS V14.01,2013-07-23 11:13:00,
2013-07-23 07:28:00,71.1,68.3,29.91,West,277,2.6,7.8,91,0.00,,CLR,0.00,VWS V14.01,2013-07-23 11:28:00,
2013-07-23 07:43:00,71.4,68.3,29.90,ESE,114,1.3,2.6,90,0.00,,CLR,0.00,VWS V14.01,2013-07-23 11:43:00,
2013-07-23 07:58:00,72.2,68.8,29.90,SE,127,0.0,3.9,89,0.00,,CLR,0.00,VWS V14.01,2013-07-23 11:58:00,
2013-07-23 08:13:00,73.2,69.1,29.90,SSE,163,0.0,0.0,87,0.00,,CLR,0.00,VWS V14.01,2013-07-23 12:13:00,
2013-07-23 08:28:00,75.0,69.5,29.90,SSE,163,0.0,1.3,83,0.00,,CLR,0.00,VWS V14.01,2013-07-23 12:28:00,
2013-07-23 08:43:00,75.8,69.9,29.90,SSW,213,0.0,2.6,82,0.00,,CLR,0.00,VWS V14.01,2013-07-23 12:43:00,
2013-07-23 08:58:00,77.2,71.3,29.90,NE,53,0.0,1.3,82,0.00,,CLR,0.00,VWS V14.01,2013-07-23 12:58:00,
2013-07-23 09:13:00,76.6,70.3,29.90,South,179,1.3,2.6,81,0.00,,CLR,0.00,VWS V14.01,2013-07-23 13:13:00,
2013-07-23 09:28:00,76.9,71.3,29.91,WSW,244,2.6,3.9,83,0.00,,CLR,0.00,VWS V14.01,2013-07-23 13:28:00,
2013-07-23 09:43:00,78.3,71.3,29.91,WSW,251,3.9,5.2,79,0.00,,CLR,0.00,VWS V14.01,2013-07-23 13:43:00,
2013-07-23 09:58:00,77.3,70.7,29.91,SW,223,6.5,11.7,80,0.00,,CLR,0.00,VWS V14.01,2013-07-23 13:58:00,
2013-07-23 10:13:00,78.2,70.8,29.91,SW,225,2.6,9.1,78,0.00,,CLR,0.00,VWS V14.01,2013-07-23 14:13:00,
2013-07-23 10:28:00,79.3,72.6,29.91,SW,227,6.5,6.5,80,0.00,,CLR,0.00,VWS V14.01,2013-07-23 14:28:00,
2013-07-23 10:43:00,79.5,71.7,29.91,WNW,292,2.6,7.8,77,0.00,,CLR,0.00,VWS V14.01,2013-07-23 14:43:00,
2013-07-23 10:58:00,80.2,71.6,29.91,WSW,252,6.5,11.7,75,0.00,,CLR,0.00,VWS V14.01,2013-07-23 14:58:00,
2013-07-23 11:13:00,80.7,72.4,29.92,NNW,338,7.8,10.4,76,0.00,,CLR,0.00,VWS V14.01,2013-07-23 15:13:00,
2013-07-23 11:28:00,81.8,72.7,29.92,WNW,295,3.9,7.8,74,0.00,,CLR,0.00,VWS V14.01,2013-07-23 15:28:00,
2013-07-23 11:43:00,82.4,72.5,29.92,West,261,1.3,11.7,72,0.00,,CLR,0.00,VWS V14.01,2013-07-23 15:43:00,
2013-07-23 11:58:00,83.3,72.5,29.92,SW,214,9.1,9.1,70,0.00,,CLR,0.00,VWS V14.01,2013-07-23 15:58:00,
2013-07-23 12:13:00,82.7,72.8,29.92,SW,225,1.3,14.3,72,0.00,,CLR,0.00,VWS V14.01,2013-07-23 16:13:00,
2013-07-23 12:28:00,83.5,72.7,29.92,SW,236,3.9,7.8,70,0.00,,CLR,0.00,VWS V14.01,2013-07-23 16:28:00,
2013-07-23 12:43:00,83.9,73.5,29.92,West,261,1.3,7.8,71,0.00,,CLR,0.00,VWS V14.01,2013-07-23 16:43:00,
2013-07-23 12:58:00,84.2,71.6,29.91,West,266,3.9,7.8,66,0.00,,CLR,0.00,VWS V14.01,2013-07-23 16:58:00,
2013-07-23 13:13:00,84.8,71.7,29.91,NNW,327,3.9,11.7,65,0.00,,CLR,0.00,VWS V14.01,2013-07-23 17:13:00,
2013-07-23 13:28:00,84.8,71.3,29.90,SW,226,3.9,7.8,64,0.00,,CLR,0.00,VWS V14.01,2013-07-23 17:28:00,
2013-07-23 13:43:00,85.6,71.1,29.90,SW,231,5.2,10.4,62,0.00,,CLR,0.00,VWS V14.01,2013-07-23 17:43:00,
2013-07-23 13:58:00,87.0,71.4,29.89,WNW,283,3.9,3.9,60,0.00,,CLR,0.00,VWS V14.01,2013-07-23 17:58:00,
2013-07-23 14:13:00,86.9,73.3,29.87,West,275,3.9,9.1,64,0.00,,FEW055,0.00,VWS V14.01,2013-07-23 18:13:00,
2013-07-23 14:29:00,87.8,71.7,29.87,NW,304,1.3,9.1,59,0.00,,FEW055,0.00,VWS V14.01,2013-07-23 18:29:00,
2013-07-23 14:43:00,88.3,72.7,29.86,WSW,248,0.0,1.3,60,0.00,,FEW055,0.00,VWS V14.01,2013-07-23 18:43:00,
2013-07-23 14:59:00,86.7,74.4,29.86,WSW,257,6.5,9.1,67,0.00,,FEW055,0.00,VWS V14.01,2013-07-23 18:59:00,
2013-07-23 15:13:00,86.4,72.3,29.85,South,174,2.6,6.5,63,0.00,,CLR,0.00,VWS V14.01,2013-07-23 19:13:00,
2013-07-23 15:28:00,87.2,72.1,29.85,WSW,238,5.2,9.1,61,0.00,,CLR,0.00,VWS V14.01,2013-07-23 19:28:00,
2013-07-23 15:44:00,87.1,73.9,29.84,West,267,7.8,7.8,65,0.00,,CLR,0.00,VWS V14.01,2013-07-23 19:44:00,
2013-07-23 15:59:00,87.2,74.5,29.84,SSW,209,2.6,2.6,66,0.00,,CLR,0.00,VWS V14.01,2013-07-23 19:59:00,
2013-07-23 16:28:00,86.6,74.3,29.83,West,259,7.8,13.0,67,0.00,,SCT060,0.00,VWS V14.01,2013-07-23 20:28:00,
2013-07-23 16:43:00,86.2,74.4,29.82,West,261,3.9,14.3,68,0.00,,SCT060,0.00,VWS V14.01,2013-07-23 20:43:00,
2013-07-23 16:58:00,85.0,74.6,29.82,SW,225,2.6,9.1,71,0.00,,SCT060,0.00,VWS V14.01,2013-07-23 20:58:00,
2013-07-23 17:13:00,85.6,75.1,29.82,WSW,243,2.6,6.5,71,0.00,,FEW060,0.00,VWS V14.01,2013-07-23 21:13:00,
2013-07-23 17:28:00,85.1,74.6,29.82,SSE,154,9.1,11.7,71,0.00,,FEW060,0.00,VWS V14.01,2013-07-23 21:28:00,
2013-07-23 17:44:00,84.1,74.5,29.82,WSW,244,9.1,13.0,73,0.00,,FEW060,0.00,VWS V14.01,2013-07-23 21:44:00,
2013-07-23 17:59:00,83.2,74.8,29.82,SW,236,3.9,11.7,76,0.00,,FEW060,0.00,VWS V14.01,2013-07-23 21:59:00,
2013-07-23 18:14:00,83.2,74.8,29.81,WSW,249,2.6,15.6,76,0.00,,BKN050,0.00,VWS V14.01,2013-07-23 22:14:00,
2013-07-23 18:29:00,83.6,75.6,29.82,WSW,252,10.4,13.0,77,0.00,,BKN050,0.00,VWS V14.01,2013-07-23 22:29:00,
2013-07-23 18:44:00,83.6,75.6,29.81,South,190,2.6,11.7,77,0.00,,BKN050,0.00,VWS V14.01,2013-07-23 22:44:00,
2013-07-23 18:58:00,82.6,75.4,29.81,SW,219,2.6,2.6,79,0.00,,BKN050,0.00,VWS V14.01,2013-07-23 22:58:00,
2013-07-23 19:14:00,82.0,74.8,29.81,SW,219,6.5,6.5,79,0.00,,BKN050,0.00,VWS V14.01,2013-07-23 23:14:00,
2013-07-23 19:43:00,81.4,74.6,29.81,SSW,210,2.6,10.4,80,0.00,,BKN050,0.00,VWS V14.01,2013-07-23 23:43:00,
2013-07-23 20:29:00,79.8,74.5,29.82,NW,315,0.0,0.0,84,0.00,,CLR,0.00,VWS V14.01,2013-07-24 00:29:00,
2013-07-23 20:59:00,78.9,74.0,29.83,NW,315,0.0,0.0,85,0.00,,CLR,0.00,VWS V14.01,2013-07-24 00:59:00,
2013-07-23 21:14:00,78.5,74.0,29.83,NW,315,1.3,1.3,86,0.00,,CLR,0.00,VWS V14.01,2013-07-24 01:14:00,
2013-07-23 21:44:00,79.2,73.9,29.83,SSW,203,7.8,10.4,84,0.00,,CLR,0.00,VWS V14.01,2013-07-24 01:44:00,
2013-07-23 21:59:00,79.0,73.4,29.83,WSW,257,6.5,9.1,83,0.00,,CLR,0.00,VWS V14.01,2013-07-24 01:59:00,
2013-07-23 22:14:00,78.4,72.8,29.83,SW,223,6.5,7.8,83,0.00,,CLR,0.00,VWS V14.01,2013-07-24 02:14:00,
2013-07-23 22:28:00,78.1,72.9,29.84,SW,234,6.5,6.5,84,0.00,,CLR,0.00,VWS V14.01,2013-07-24 02:28:00,
2013-07-23 22:43:00,77.5,72.6,29.85,SSW,207,0.0,1.3,85,0.00,,CLR,0.00,VWS V14.01,2013-07-24 02:43:00,
2013-07-23 22:59:00,77.2,72.3,29.85,SSW,199,0.0,3.9,85,0.00,,CLR,0.00,VWS V14.01,2013-07-24 02:59:00,
2013-07-23 23:14:00,76.7,72.2,29.85,SSW,199,1.3,1.3,86,0.00,,CLR,0.00,VWS V14.01,2013-07-24 03:14:00,
2013-07-23 23:28:00,76.1,71.9,29.85,WSW,246,2.6,3.9,87,0.00,,CLR,0.00,VWS V14.01,2013-07-24 03:28:00,